Regional Weather Roundup
Issued by NWS

Home | Current Version | Previous Version | Graphics & Text | Print | Product List | Glossary On
Versions: 1 2 3 4 5 6 7 8 9 10 11 12 13 14 15 16 17 18 19 20 21 22 23 24 25 26 27 28 29 30 31 32 33 34 35 36 37 38 39 40 41 42 43 44 45 46 47 48 49 50
000
ASUS43 KLMK 210802
RWRKY
KENTUCKY REGIONAL WEATHER ROUNDUP
NATIONAL WEATHER SERVICE LOUISVILLE KY
400 AM EDT SAT APR 21 2018

NOTE "FAIR" INDICATES FEW OR NO CLOUDS BELOW 12,000 FEET
WITH NO SIGNIFICANT WEATHER AND/OR OBSTRUCTIONS TO VISIBILITY.

KYZ001>023-026-027-061>063-070>075-210900-
WESTERN AND SOUTH CENTRAL KENTUCKY

CITY           SKY/WX    TMP DP  RH WIND       PRES   REMARKS
PADUCAH        FAIR      43  34  70 E6        30.29F
HENDERSON      FAIR      43  32  65 E6        30.34F
OWENSBORO      FAIR      45  29  53 E6        30.35S
HOPKINSVILLE   FAIR      47  29  49 E6        30.30F
BOWLING GREEN  FAIR      41  32  70 NE3       30.34S
GLASGOW        NOT AVBL
$$

KYZ024-025-028>034-038-045-046-053-210900-
NORTH CENTRAL KENTUCKY

CITY           SKY/WX    TMP DP  RH WIND       PRES   REMARKS
LOUISVILLE/SDF FAIR      47  27  45 E5        30.38S
LOUISVILLE/LOU FAIR      45  29  53 E7        30.38F
FORT KNOX      FAIR      46  26  45 E8        30.37S
$$

KYZ035>037-039>044-047>052-055>060-089>105-210900-
NORTHEAST KENTUCKY

CITY           SKY/WX    TMP DP  RH WIND       PRES   REMARKS
LEXINGTON      FAIR      42  26  53 NE9       30.39R
COVINGTON      FAIR      43  27  53 E9        30.41S
FRANKFORT      FAIR      45  24  43 NE5       30.38R
$$

KYZ054-064>069-076>088-106>120-210900-
SOUTHEAST KENTUCKY

CITY           SKY/WX    TMP DP  RH WIND       PRES   REMARKS
JACKSON        FAIR      44  23  43 NE5       30.36S
LONDON         FAIR      41  25  53 N3        30.35R
SOMERSET       NOT AVBL
MIDDLESBORO    FAIR      34  32  90 CALM      30.36S
MONTICELLO     NOT AVBL
$$





USA.gov is the U.S. government's official web portal to all federal, state and local government web resources and services.